sat.trackr.live / text

‹ back to catalog

STARLINK-6098

NORAD 56906 · 2023-083AG

PAYLOAD ACTIVE UNKNOWN

§ Identity

Operator
Country
US
Launch date
2023-06-12
Launch site
AFETR
Launch vehicle
Mass (kg)
RCS (m²)

Purposes: comms

External: N2YO · Heavens-Above · Gunter

§ Orbital elements

Epoch: 2026-09-20T21:11:39.862464Z

Period
94.27 min
Inclination
43.0034°
Eccentricity
0.0001724
Mean motion
15.27578506 rev/d
Perigee alt
481.9 km
Apogee alt
484.2 km
Semi-major
6,861.2 km
B*
1.5855e-5
RAAN
48.0598°
Arg perigee
261.6601°
Mean anomaly
98.4055°
Rev number
18,165

§ Raw data

STARLINK-60981 56906U 23083AG  26263.88310026  .00000174  00000+0  15855-4 0  99982 56906  43.0034  48.0598 0001724 261.6601  98.4055 15.27578506181650

JSON: /api/v1/satellites/56906 · /tle

For live sub-satellite position, see the globe view (requires WebGL).

§ Visibility from observer

Set your observer location to see the next 7 days of passes ≥ 10°. The values pass through the URL so the page stays shareable.

No JS? Fill the form by hand. The geolocation button needs JavaScript.